H1 CPF 2 NER 2023 12 13 9 347 01 glonass145 H2 2213001 9145 54031 2023 12 13 0 0 0 2023 12 16 23 45 0 900 1 1 0 0 0 1 H9 10 0 60291 0.00000 0 -11736453.397 6251329.117 21788964.678 10 0 60291 900.00000 0 -14202271.410 5405452.093 20510343.611 10 0 60291 1800.00000 0 -16549363.028 4794259.850 18834239.952 10 0 60291 2700.00000 0 -18712117.403 4407059.673 16793114.870 10 0 60291 3600.00000 0 -20629859.519 4221472.980 14426492.939 10 0 60291 4500.00000 0 -22249224.964 4204578.383 11780204.961 10 0 60291 5400.00000 0 -23526247.163 4314506.530 8905509.134 10 0 60291 6300.00000 0 -24428070.612 4502419.685 5858106.574 10 0 60291 7200.00000 0 -24934218.732 4714792.827 2697069.408 10 0 60291 8100.00000 0 -25037363.262 4895900.227 -516298.486 10 0 60291 9000.00000 0 -24743562.628 4990402.580 -3719646.478 10 0 60291 9900.00000 0 -24071958.777 4945925.221 -6850785.085 10 0 60291 10800.00000 0 -23053944.584 4715517.984 -9848893.313 10 0 60291 11700.00000 0 -21731836.149 4259891.970 -12655701.789 10 0 60291 12600.00000 0 -20157105.182 3549337.617 -15216628.301 10 0 60291 13500.00000 0 -18388245.193 2565241.645 -17481843.297 10 0 60291 14400.00000 0 -16488360.723 1301137.262 -19407244.213 10 0 60291 15300.00000 0 -14522580.543 -236758.452 -20955319.267 10 0 60291 16200.00000 0 -12555403.175 -2029544.512 -22095883.585 10 0 60291 17100.00000 0 -10648085.934 -4046175.290 -22806673.045 10 0 60291 18000.00000 0 -8856186.899 -6244518.247 -23073783.942 10 0 60291 18900.00000 0 -7227362.715 -8572887.494 -22891949.679 10 0 60291 19800.00000 0 -5799514.376 -10971990.381 -22264648.697 10 0 60291 20700.00000 0 -4599358.502 -13377206.791 -21204041.257 10 0 60291 21600.00000 0 -3641483.667 -15721106.612 -19730735.869 10 0 60291 22500.00000 0 -2927930.856 -17936100.584 -17873389.591 10 0 60291 23400.00000 0 -2448314.982 -19957113.798 -15668149.673 10 0 60291 24300.00000 0 -2180481.467 -21724169.928 -13157947.296 10 0 60291 25200.00000 0 -2091669.092 -23184777.780 -10391657.119 10 0 60291 26100.00000 0 -2140128.860 -24296019.896 -7423139.346 10 0 60291 27000.00000 0 -2277129.032 -25026255.454 -4310183.407 10 0 60291 27900.00000 0 -2449260.151 -25356366.017 -1113374.556 10 0 60291 28800.00000 0 -2600940.999 -25280492.056 2105093.629 10 0 60291 29700.00000 0 -2677018.020 -24806229.877 5282636.758 10 0 60291 30600.00000 0 -2625346.909 -23954281.503 8357502.551 10 0 60291 31500.00000 0 -2399246.068 -22757573.285 11269974.526 10 0 60291 32400.00000 0 -1959717.403 -21259881.428 13963532.518 10 0 60291 33300.00000 0 -1277340.127 -19514023.283 16385947.308 10 0 60291 34200.00000 0 -333757.386 -17579691.241 18490288.224 10 0 60291 35100.00000 0 877306.989 -15521020.659 20235824.737 10 0 60291 36000.00000 0 2349544.421 -13403993.836 21588805.455 10 0 60291 36900.00000 0 4064091.413 -11293788.378 22523100.523 10 0 60291 37800.00000 0 5990092.226 -9252179.948 23020696.233 10 0 60291 38700.00000 0 8085771.301 -7335106.614 23072033.470 10 0 60291 39600.00000 0 10299971.341 -5590494.902 22676184.528 10 0 60291 40500.00000 0 12574093.862 -4056436.438 21840865.635 10 0 60291 41400.00000 0 14844362.593 -2759789.425 20582285.412 10 0 60291 42300.00000 0 17044316.801 -1715261.613 18924832.238 10 0 60291 43200.00000 0 19107432.151 -925011.499 16900606.266 10 0 60291 44100.00000 0 20969761.328 -378783.230 14548804.477 10 0 60291 45000.00000 0 22572485.524 -54568.679 11914969.834 10 0 60291 45900.00000 0 23864271.309 80231.653 9050118.059 10 0 60291 46800.00000 0 24803335.051 67197.907 6009757.943 10 0 60291 47700.00000 0 25359128.808 -45101.825 2852823.296 10 0 60291 48600.00000 0 25513577.003 -203402.239 -359463.478 10 0 60291 49500.00000 0 25261811.638 -352232.947 -3564774.628 10 0 60291 50400.00000 0 24612374.536 -436506.657 -6700884.358 10 0 60291 51300.00000 0 23586877.295 -404093.697 -9706876.732 10 0 60291 52200.00000 0 22219132.335 -208273.487 -12524330.548 10 0 60291 53100.00000 0 20553790.645 190041.533 -15098457.768 10 0 60291 54000.00000 0 18644542.602 820404.637 -17379172.996 10 0 60291 54900.00000 0 16551956.652 1701337.881 -19322072.793 10 0 60291 55800.00000 0 14341045.977 2839304.258 -20889305.349 10 0 60291 56700.00000 0 12078664.678 4228193.996 -22050313.265 10 0 60291 57600.00000 0 9830842.211 5849348.409 -22782434.663 10 0 60291 58500.00000 0 7660167.463 7672122.091 -23071350.630 10 0 60291 59400.00000 0 5623331.662 9654961.485 -22911369.983 10 0 60291 60300.00000 0 3768932.734 11746956.102 -22305545.498 10 0 60291 61200.00000 0 2135632.672 13889798.547 -21265618.988 10 0 60291 62100.00000 0 750744.653 16020072.158 -19811795.925 10 0 60291 63000.00000 0 -370691.472 18071771.002 -17972353.647 10 0 60291 63900.00000 0 -1226307.260 19978946.895 -15783090.471 10 0 60291 64800.00000 0 -1826261.589 21678372.445 -13286626.307 10 0 60291 65700.00000 0 -2192561.607 23112108.228 -10531568.365 10 0 60291 66600.00000 0 -2357878.676 24229865.953 -7571558.482 10 0 60291 67500.00000 0 -2363910.777 24991068.021 -4464221.116 10 0 60291 68400.00000 0 -2259362.136 25366516.654 -1270033.140 10 0 60291 69300.00000 0 -2097627.160 25339602.335 1948861.575 10 0 60291 70200.00000 0 -1934278.232 24907000.908 5129868.805 10 0 60291 71100.00000 0 -1824465.138 24078830.492 8211167.215 10 0 60291 72000.00000 0 -1820337.383 22878262.290 11132913.558 10 0 60291 72900.00000 0 -1968599.369 21340602.527 13838405.849 10 0 60291 73800.00000 0 -2308302.380 19511884.971 16275181.713 10 0 60291 74700.00000 0 -2868966.913 17447033.913 18396030.680 10 0 60291 75600.00000 0 -3669114.608 15207675.179 20159901.339 10 0 60291 76500.00000 0 -4715271.502 12859686.987 21532686.633 10 0 60291 77400.00000 0 -6001484.369 10470592.872 22487873.148 10 0 60291 78300.00000 0 -7509370.444 8106904.812 23007043.102 10 0 60291 79200.00000 0 -9208698.558 5831526.236 23080220.485 10 0 60291 80100.00000 0 -11058477.800 3701321.676 22706055.771 10 0 60291 81000.00000 0 -13008508.918 1764952.514 21891846.408 10 0 60291 81900.00000 0 -15001334.668 61067.069 20653393.179 10 0 60291 82800.00000 0 -16974508.907 -1383081.441 19014695.283 10 0 60291 83700.00000 0 -18863091.115 -2552533.167 17007489.744 10 0 60291 84600.00000 0 -20602263.577 -3445000.152 14670643.427 10 0 60291 85500.00000 0 -22129963.164 -4070710.446 12049408.578 10 0 60292 0.00000 0 -23389418.651 -4451725.170 9194555.562 10 0 60292 900.00000 0 -24331488.758 -4620757.872 6161397.005 10 0 60292 1800.00000 0 -24916701.687 -4619545.612 3008725.232 10 0 60292 2700.00000 0 -25116912.866 -4496841.100 -202322.242 10 0 60292 3600.00000 0 -24916509.133 -4306110.018 -3409443.904 10 0 60292 4500.00000 0 -24313108.792 -4103031.027 -6550380.878 10 0 60292 5400.00000 0 -23317727.010 -3942904.215 -9564125.361 10 0 60292 6300.00000 0 -21954398.496 -3878077.908 -12392107.188 10 0 60292 7200.00000 0 -20259272.131 -3955503.244 -14979335.101 10 0 60292 8100.00000 0 -18279214.458 -4214520.747 -17275470.130 10 0 60292 9000.00000 0 -16069979.558 -4684973.511 -19235809.816 10 0 60292 9900.00000 0 -13694021.223 -5385727.963 -20822163.682 10 0 60292 10800.00000 0 -11218038.293 -6323666.068 -22003602.600 10 0 60292 11700.00000 0 -8710355.316 -7493193.010 -22757067.142 10 0 60292 12600.00000 0 -6238247.641 -8876282.653 -23067822.776 10 0 60292 13500.00000 0 -3865322.353 -10443060.413 -22929752.769 10 0 60292 14400.00000 0 -1649064.127 -12152900.482 -22345482.752 10 0 60292 15300.00000 0 361351.742 -13955992.503 -21326334.187 10 0 60292 16200.00000 0 2126888.176 -15795312.896 -19892107.258 10 0 60292 17100.00000 0 3620041.044 -17608918.753 -18070697.058 10 0 60292 18000.00000 0 4825742.064 -19332468.281 -15897550.258 10 0 60292 18900.00000 0 5741732.923 -20901862.005 -13414972.657 10 0 60292 19800.00000 0 6378396.041 -22255893.506 -10671301.104 10 0 60292 20700.00000 0 6758050.414 -23338797.822 -7719956.157 10 0 60292 21600.00000 0 6913743.749 -24102589.824 -4618394.421 10 0 60292 22500.00000 0 6887593.487 -24509093.658 -1426981.617 10 0 60292 23400.00000 0 6728748.561 -24531577.448 1792190.742 10 0 60292 24300.00000 0 6491059.735 -24155924.292 4976521.072 10 0 60292 25200.00000 0 6230558.678 -23381290.307 8064121.263 10 0 60292 26100.00000 0 6002853.797 -22220222.423 10995023.358 10 0 60292 27000.00000 0 5860554.048 -20698231.467 13712345.363 10 0 60292 27900.00000 0 5850830.379 -18852839.157 16163393.288 10 0 60292 28800.00000 0 6013218.159 -16732139.625 18300678.117 10 0 60292 29700.00000 0 6377753.390 -14392936.249 20082828.503 10 0 60292 30600.00000 0 6963521.027 -11898531.949 21475382.347 10 0 60292 31500.00000 0 7777676.187 -9316265.158 22451442.997 10 0 60292 32400.00000 0 8814979.047 -6714893.675 22992188.602 10 0 60292 33300.00000 0 10057862.775 -4161934.385 23087225.993 10 0 60292 34200.00000 0 11477031.658 -1721068.249 22734783.317 10 0 60292 35100.00000 0 13032564.750 550283.191 21941738.534 10 0 60292 36000.00000 0 14675479.507 2603110.887 20723483.702 10 0 60292 36900.00000 0 16349690.970 4398613.233 19103627.801 10 0 60292 37800.00000 0 17994285.719 5909560.036 17113543.540 10 0 60292 38700.00000 0 19546016.753 7121170.319 14791766.324 10 0 60292 39600.00000 0 20941916.135 8031468.674 12183256.159 10 0 60292 40500.00000 0 22121917.049 8651106.332 9338535.793 10 0 60292 41400.00000 0 23031376.213 9002655.186 6312720.755 10 0 60292 42300.00000 0 23623391.257 9119404.820 3164459.192 10 0 60292 43200.00000 0 23860815.817 9043713.341 -45198.692 10 0 60292 44100.00000 0 23717887.327 8824981.568 -3253980.214 10 0 60292 45000.00000 0 23181398.324 8517336.008 -6399596.115 10 0 60292 45900.00000 0 22251360.979 8177118.581 -9420949.437 10 0 60292 46800.00000 0 20941135.621 7860289.312 -12259323.688 10 0 60292 47700.00000 0 19277016.487 7619852.176 -14859526.866 10 0 60292 48600.00000 0 17297290.675 7503413.496 -17170968.700 10 0 60292 49500.00000 0 15050808.434 7550976.839 -19148649.749 10 0 60292 50400.00000 0 12595123.545 7793068.554 -20754042.670 10 0 60292 51300.00000 0 9994280.587 8249274.190 -21955848.163 10 0 60292 52200.00000 0 7316340.789 8927248.785 -22730610.561 10 0 60292 53100.00000 0 4630749.196 9822244.037 -23063180.760 10 0 60292 54000.00000 0 2005652.538 10917173.545 -22947017.208 10 0 60292 54900.00000 0 -494720.708 12183214.633 -22384318.756 10 0 60292 55800.00000 0 -2812509.058 13580922.492 -21385986.458 10 0 60292 56700.00000 0 -4898393.772 15061810.675 -19971414.693 10 0 60292 57600.00000 0 -6713411.198 16570332.113 -18168115.318 10 0 60292 58500.00000 0 -8230326.503 18046177.662 -16011181.891 10 0 60292 59400.00000 0 -9434512.053 19426795.507 -13542604.199 10 0 60292 60300.00000 0 -10324294.625 20650025.167 -10810446.441 10 0 60292 61200.00000 0 -10910758.044 21656734.686 -7867905.290 10 0 60292 62100.00000 0 -11217011.026 22393349.321 -4772266.640 10 0 60292 63000.00000 0 -11276952.667 22814164.487 -1583782.018 10 0 60292 63900.00000 0 -11133589.427 22883344.858 1635512.555 10 0 60292 64800.00000 0 -10836976.445 22576524.901 4823011.312 10 0 60292 65700.00000 0 -10441871.909 21881943.164 7916762.508 10 0 60292 66600.00000 0 -10005205.163 20801062.536 10856676.526 10 0 60292 67500.00000 0 -9583466.829 19348650.616 13585694.254 10 0 60292 68400.00000 0 -9230132.120 17552317.175 16050892.777 10 0 60292 69300.00000 0 -8993226.648 15451528.579 18204506.974 10 0 60292 70200.00000 0 -8913137.506 13096140.832 20004847.718 10 0 60292 71100.00000 0 -9020761.653 10544512.790 21417099.714 10 0 60292 72000.00000 0 -9336069.058 7861278.246 22413984.563 10 0 60292 72900.00000 0 -9867140.424 5114869.296 22976277.469 10 0 60292 73800.00000 0 -10609719.371 2374893.237 23093168.821 10 0 60292 74700.00000 0 -11547297.458 -290529.142 22762464.723 10 0 60292 75600.00000 0 -12651728.380 -2817354.820 21990623.463 10 0 60292 76500.00000 0 -13884345.797 -5148033.496 20792627.721 10 0 60292 77400.00000 0 -15197538.552 -7233647.727 19191695.108 10 0 60292 78300.00000 0 -16536718.080 -9035691.169 17218832.398 10 0 60292 79200.00000 0 -17842596.674 -10527412.599 14912241.468 10 0 60292 80100.00000 0 -19053682.182 -11694671.168 12316587.609 10 0 60292 81000.00000 0 -20108885.546 -12536268.389 9482143.409 10 0 60292 81900.00000 0 -20950132.595 -13063743.794 6463823.709 10 0 60292 82800.00000 0 -21524870.902 -13300643.405 3320129.464 10 0 60292 83700.00000 0 -21788366.462 -13281292.004 112020.187 10 0 60292 84600.00000 0 -21705693.334 -13049120.970 -3098263.699 10 0 60292 85500.00000 0 -21253331.819 -12654622.123 -6248405.990 10 0 60293 0.00000 0 -20420306.969 -12153013.952 -9277223.673 10 0 60293 900.00000 0 -19208817.654 -11601718.489 -12125857.731 10 0 60293 1800.00000 0 -17634329.411 -11057756.332 -14738918.207 10 0 60293 2700.00000 0 -15725124.075 -10575169.279 -17065566.323 10 0 60293 3600.00000 0 -13521324.504 -10202580.625 -19060508.077 10 0 60293 4500.00000 0 -11073433.419 -9980996.586 -20684881.202 10 0 60293 5400.00000 0 -8440446.242 -9941942.481 -21907017.616 10 0 60293 6300.00000 0 -5687615.681 -10106013.217 -22703066.186 10 0 60293 7200.00000 0 -2883960.523 -10481900.162 -23057463.377 10 0 60293 8100.00000 0 -99621.832 -11065936.375 -22963242.348 10 0 60293 9000.00000 0 2596823.756 -11842180.326 -22422174.158 10 0 60293 9900.00000 0 5140982.053 -12783035.378 -21444737.963 10 0 60293 10800.00000 0 7475081.846 -13850379.682 -20049920.455 10 0 60293 11700.00000 0 9550136.506 -14997159.385 -18264848.052 10 0 60293 12600.00000 0 11327736.814 -16169378.288 -16124258.719 10 0 60293 13500.00000 0 12781400.630 -17308400.115 -13669823.527 10 0 60293 14400.00000 0 13897423.671 -18353466.065 -10949331.120 10 0 60293 15300.00000 0 14675196.694 -19244320.939 -8015751.221 10 0 60293 16200.00000 0 15126977.026 -19923836.373 -4926195.840 10 0 60293 17100.00000 0 15277125.515 -20340519.666 -1740799.089 10 0 60293 18000.00000 0 15160842.720 -20450801.537 1478461.708 10 0 60293 18900.00000 0 14822459.387 -20221005.563 4668979.691 10 0 60293 19800.00000 0 14313355.144 -19628915.709 7768742.372 10 0 60293 20700.00000 0 13689594.934 -18664875.551 10717541.092 10 0 60293 21600.00000 0 13009384.412 -17332372.836 13458141.909 10 0 60293 22500.00000 0 12330452.784 -15648084.890 15937394.886 10 0 60293 23400.00000 0 11707474.195 -13641383.179 18107260.300 10 0 60293 24300.00000 0 11189636.582 -11353318.011 19925732.337 10 0 60293 25200.00000 0 10818460.182 -8835125.956 21357643.181 10 0 60293 26100.00000 0 10625956.968 -6146322.210 22375332.976 10 0 60293 27000.00000 0 10633207.585 -3352457.040 22959173.911 10 0 60293 27900.00000 0 10849414.685 -522628.887 23097939.531 10 0 60293 28800.00000 0 11271471.616 2273143.542 22789013.215 10 0 60293 29700.00000 0 11884063.911 4966582.490 22038432.654 10 0 60293 30600.00000 0 12660299.070 7493736.883 20860770.025 10 0 60293 31500.00000 0 13562838.221 9797386.939 19278850.281 10 0 60293 32400.00000 0 14545482.653 11829169.627 17323312.830 10 0 60293 33300.00000 0 15555149.320 13551338.300 15032024.443 10 0 60293 34200.00000 0 16534153.273 14938084.703 12449353.990 10 0 60293 35100.00000 0 17422702.069 15976369.467 9625322.021 10 0 60293 36000.00000 0 18161498.148 16666227.318 6614640.654 10 0 60293 36900.00000 0 18694340.268 17020534.789 3475661.444 10 0 60293 37800.00000 0 18970614.820 17064250.520 269250.855 10 0 60293 38700.00000 0 18947571.921 16833160.168 -2942385.418 10 0 60293 39600.00000 0 18592289.873 16372178.701 -6096906.732 10 0 60293 40500.00000 0 17883244.252 15733281.502 -9133047.047 10 0 60293 41400.00000 0 16811414.252 14973151.494 -11991806.117 10 0 60293 42300.00000 0 15380878.099 14150641.531 -14617598.832 10 0 60293 43200.00000 0 13608870.796 13324159.346 -16959339.958 10 0 60293 44100.00000 0 11525299.928 12549085.661 -18971442.777 10 0 60293 45000.00000 0 9171738.098 11875334.840 -20614711.756 10 0 60293 45900.00000 0 6599932.558 11345161.495 -21857111.485 10 0 60293 46800.00000 0 3869892.908 10991306.138 -22674396.629 10 0 60293 47700.00000 0 1047635.547 10835558.674 -23050590.272 10 0 60293 48600.00000 0 -1797321.966 10887800.921 -22978301.086 10 0 60293 49500.00000 0 -4594612.955 11145569.110 -22458872.811 10 0 60293 50400.00000 0 -7275710.033 11594155.324 -21502362.815 10 0 60293 51300.00000 0 -9776538.233 12207244.056 -20127349.780 10 0 60293 52200.00000 0 -12039904.245 12948057.306 -18360573.913 10 0 60293 53100.00000 0 -14017640.658 13770960.038 -16236416.384 10 0 60293 54000.00000 0 -15672376.020 14623458.133 -13796227.943 10 0 60293 54900.00000 0 -16978857.193 15448504.151 -11087519.742 10 0 60293 55800.00000 0 -17924769.306 16187012.935 -8163032.338 10 0 60293 56700.00000 0 -18511019.859 16780480.021 -5079701.437 10 0 60293 57600.00000 0 -18751476.260 17173591.325 -1897541.148 10 0 60293 58500.00000 0 -18672169.294 17316712.865 1321532.599 10 0 60293 59400.00000 0 -18309997.675 17168154.462 4514914.641 10 0 60293 60300.00000 0 -17710990.028 16696111.049 7620534.603 10 0 60293 61200.00000 0 -16928199.258 15880199.126 10578067.666 10 0 60293 62100.00000 0 -16019319.651 14712523.238 13330107.922 10 0 60293 63000.00000 0 -15044128.389 13198227.438 15823281.213 10 0 60293 63900.00000 0 -14061860.170 11355508.583 18009275.879 10 0 60293 64800.00000 0 -13128625.867 9215090.949 19845771.879 10 0 60293 65700.00000 0 -12294983.755 6819184.160 21297251.084 10 0 60293 66600.00000 0 -11603764.876 4219967.858 22335674.059 10 0 60293 67500.00000 0 -11088243.026 1477665.918 22941011.491 10 0 60293 68400.00000 0 -10770725.062 -1341710.321 23101621.191 10 0 60293 69300.00000 0 -10661619.546 -4168856.942 22814464.484 10 0 60293 70200.00000 0 -10759021.703 -6933808.147 22085158.697 10 0 60293 71100.00000 0 -11048831.286 -9568595.129 20927865.267 10 0 60293 72000.00000 0 -11505397.914 -12009824.378 19365015.800 10 0 60293 72900.00000 0 -12092666.679 -14201070.145 17426881.188 10 0 60293 73800.00000 0 -12765776.174 -16094983.266 15150991.529 10 0 60293 74700.00000 0 -13473042.317 -17655030.075 12581417.307 10 0 60293 75600.00000 0 -14158245.245 -18856790.144 9767924.740 10 0 60293 76500.00000 0 -14763123.797 -19688759.634 6765020.634 10 0 60293 77400.00000 0 -15229973.093 -20152627.179 3630904.330 10 0 60293 78300.00000 0 -15504236.125 -20263011.103 426346.247 10 0 60293 79200.00000 0 -15536980.117 -20046669.024 -2786485.784 10 0 60293 80100.00000 0 -15287152.787 -19541212.939 -5945229.918 10 0 60293 81000.00000 0 -14723522.579 -18793383.692 -8988540.116 10 0 60293 81900.00000 0 -13826219.848 -17856957.263 -11857278.757 10 0 60293 82800.00000 0 -12587812.557 -16790370.984 -14495668.532 10 0 60293 83700.00000 0 -11013869.420 -15654169.683 -16852380.833 10 0 60293 84600.00000 0 -9122984.937 -14508379.480 -18881539.052 10 0 60293 85500.00000 0 -6946263.341 -13409920.116 -20543616.832 10 0 60294 0.00000 0 -4526281.444 -12410165.194 -21806213.331 10 0 60294 900.00000 0 -1915570.760 -11552752.932 -22644690.690 10 0 60294 1800.00000 0 825315.862 -10871741.283 -23042659.371 10 0 60294 2700.00000 0 3630077.916 -10390183.675 -22992303.883 10 0 60294 3600.00000 0 6429184.210 -10119186.994 -22494540.464 10 0 60294 4500.00000 0 9152530.115 -10057491.188 -21559004.033 10 0 60294 5400.00000 0 11732124.628 -10191588.389 -20203864.207 10 0 60294 6300.00000 0 14104695.531 -10496376.570 -18455473.551 10 0 60294 7200.00000 0 16214104.125 -10936320.018 -16347854.658 10 0 60294 8100.00000 0 18013468.910 -11467067.295 -13922035.824 10 0 60294 9000.00000 0 19466909.657 -12037457.852 -11225248.226 10 0 60294 9900.00000 0 20550839.261 -12591831.782 -8310000.431 10 0 60294 10800.00000 0 21254749.833 -13072544.144 -5233048.706 10 0 60294 11700.00000 0 21581460.915 -13422576.542 -2054283.790 10 0 60294 12600.00000 0 21546820.530 -13588134.378 1164443.301 10 0 60294 13500.00000 0 21178873.030 -13521118.937 4360532.639 10 0 60294 14400.00000 0 20516530.333 -13181368.817 7471859.401 10 0 60294 15300.00000 0 19607804.121 -12538575.296 10437985.832 10 0 60294 16200.00000 0 18507674.990 -11573790.228 13201336.961 10 0 60294 17100.00000 0 17275689.620 -10280462.587 15708316.927 10 0 60294 18000.00000 0 15973388.084 -8664959.879 17910344.223 10 0 60294 18900.00000 0 14661670.055 -6746552.442 19764786.233 10 0 60294 19800.00000 0 13398210.647 -4556861.211 21235775.721 10 0 60294 20700.00000 0 12235033.982 -2138791.893 22294894.463 10 0 60294 21600.00000 0 11216345.398 455000.343 22921712.019 10 0 60294 22500.00000 0 10376712.001 3164052.284 23104170.455 10 0 60294 23400.00000 0 9739666.418 5922360.344 22838808.676 10 0 60294 24300.00000 0 9316790.853 8660881.405 22130822.934 10 0 60294 25200.00000 0 9107318.529 11310164.456 20993962.915 10 0 60294 26100.00000 0 9098268.236 13803005.268 19450265.594 10 0 60294 27000.00000 0 9265105.651 16077015.562 17529631.821 10 0 60294 27900.00000 0 9572903.402 18077001.461 15269253.281 10 0 60294 28800.00000 0 9977951.210 19757053.700 12712900.128 10 0 60294 29700.00000 0 10429748.738 21082263.700 9910082.115 10 0 60294 30600.00000 0 10873297.721 22029994.782 6915098.429 10 0 60294 31500.00000 0 11251597.345 22590655.935 3785993.717 10 0 60294 32400.00000 0 11508237.948 22767945.980 583439.760 10 0 60294 33300.00000 0 11589983.792 22578557.861 -2630436.153 10 0 60294 34200.00000 0 11449235.593 22051355.277 -5793253.657 10 0 60294 35100.00000 0 11046268.293 21226055.892 -8843589.320 10 0 60294 36000.00000 0 10351148.601 20151476.164 -11722170.625 10 0 60294 36900.00000 0 9345250.043 18883411.322 -14373030.351 10 0 60294 37800.00000 0 8022300.033 17482239.483 -16744598.579 10 0 60294 38700.00000 0 6388912.976 16010350.615 -18790710.650 10 0 60294 39600.00000 0 4464585.026 14529508.540 -20471511.005 10 0 60294 40500.00000 0 2281148.736 13098257.031 -21754234.970 10 0 60294 41400.00000 0 -118291.471 11769479.227 -22613852.919 10 0 60294 42300.00000 0 -2680900.150 10588213.142 -23033563.938 10 0 60294 43200.00000 0 -5346065.097 9589815.254 -23005129.107 10 0 60294 44100.00000 0 -8047684.630 8798549.434 -22529037.579 10 0 60294 45000.00000 0 -10716693.350 8226660.576 -21614501.890 10 0 60294 45900.00000 0 -13283721.618 7873971.766 -20279282.241 10 0 60294 46800.00000 0 -15681778.212 7728021.698 -18549342.791 10 0 60294 47700.00000 0 -17848844.336 7764736.158 -16458346.397 10 0 60294 48600.00000 0 -19730270.697 7949604.677 -14046997.391 10 0 60294 49500.00000 0 -21280877.488 8239311.940 -11362245.167 10 0 60294 50400.00000 0 -22466669.444 8583754.139 -8456364.284 10 0 60294 51300.00000 0 -23266094.365 8928353.938 -5385929.365 10 0 60294 52200.00000 0 -23670792.815 9216574.932 -2210705.442 10 0 60294 53100.00000 0 -23685808.247 9392528.003 1007523.846 10 0 60294 54000.00000 0 -23329249.773 9403558.040 4206166.389 10 0 60294 54900.00000 0 -22631423.058 9202700.488 7323045.608 10 0 60294 55800.00000 0 -21633467.300 8750902.926 10297613.594 10 0 60294 56700.00000 0 -20385557.123 8018917.115 13072129.155 10 0 60294 57600.00000 0 -18944746.341 6988781.174 15592777.555 10 0 60294 58500.00000 0 -17372545.303 5654829.171 17810710.185 10 0 60294 59400.00000 0 -15732334.302 4024185.516 19682984.424 10 0 60294 60300.00000 0 -14086721.791 2116723.266 21173386.237 10 0 60294 61200.00000 0 -12494957.916 -35512.035 22253120.580 10 0 60294 62100.00000 0 -11010510.935 -2389389.250 22901357.474 10 0 60294 63000.00000 0 -9678906.773 -4892244.447 23105624.406 10 0 60294 63900.00000 0 -8535920.656 -7483835.714 22862038.589 10 0 60294 64800.00000 0 -7606194.838 -10098619.729 22175375.501 10 0 60294 65700.00000 0 -6902338.627 -12668256.786 21058972.949 10 0 60294 66600.00000 0 -6424546.973 -15124241.619 19534472.736 10 0 60294 67500.00000 0 -6160752.431 -17400552.253 17631404.732 10 0 60294 68400.00000 0 -6087303.311 -19436208.300 15386620.897 10 0 60294 69300.00000 0 -6170139.182 -21177633.554 12843589.402 10 0 60294 70200.00000 0 -6366414.201 -22580725.623 10051561.579 10 0 60294 71100.00000 0 -6626500.167 -23612547.076 7064626.779 10 0 60294 72000.00000 0 -6896285.177 -24252567.926 3940672.542 10 0 60294 72900.00000 0 -7119671.262 -24493407.614 740269.403 10 0 60294 73800.00000 0 -7241165.729 -24341045.282 -2474498.633 10 0 60294 74700.00000 0 -7208456.653 -23814489.121 -5641235.552 10 0 60294 75600.00000 0 -6974863.348 -22944918.204 -8698443.518 10 0 60294 76500.00000 0 -6501557.476 -21774332.249 -11586718.160 10 0 60294 77400.00000 0 -5759459.892 -20353765.575 -14249905.413 10 0 60294 78300.00000 0 -4730731.736 -18741139.835 -16636197.055 10 0 60294 79200.00000 0 -3409795.148 -16998845.429 -18699143.214 10 0 60294 80100.00000 0 -1803838.782 -15191153.020 -20398561.720 10 0 60294 81000.00000 0 67215.152 -13381563.748 -21701326.202 10 0 60294 81900.00000 0 2171282.903 -11630209.324 -22582017.301 10 0 60294 82800.00000 0 4465208.121 -9991411.174 -23023423.947 10 0 60294 83700.00000 0 6896323.809 -8511500.986 -23016884.670 10 0 60294 84600.00000 0 9404423.396 -7226994.069 -22562461.982 10 0 60294 85500.00000 0 11924059.638 -6163192.047 -21668946.067 99